Location: Reggio nell'Emilia
(44.7170°N, 10.6000°E)
Time: 03:47:37
(UTC+01:00)

ISS - Visible Passes

Search period start: 23 January 2019 00:00
Search period end: 02 February 2019 00:00
Orbit: 404 x 411 km, 51.6° (Epoch: 23 January)

Date Brightness Start Highest point End Pass type
(mag) Time Alt. Az. Time Alt. Az. Time Alt. Az.
23 Jan -2.9 18:37:24 10° SSW 18:40:25 34° SE 18:41:04 31° ESE visible
23 Jan -0.2 20:13:45 10° W 20:13:48 10° W 20:13:48 10° W visible
24 Jan -2.0 17:46:46 10° S 17:49:14 20° SE 17:51:42 10° E visible
24 Jan -2.8 19:22:13 10° WSW 19:24:46 47° W 19:24:46 47° W visible
25 Jan -3.9 18:30:50 10° SW 18:34:08 78° SE 18:35:40 29° ENE visible
25 Jan -0.4 20:07:58 10° WNW 20:08:24 13° WNW 20:08:24 13° WNW visible
26 Jan -2.7 19:16:18 10° W 19:19:13 37° NNW 19:19:13 37° NNW visible
27 Jan -3.3 18:24:40 10° WSW 18:27:55 52° NNW 18:30:00 20° NE visible
27 Jan -0.6 20:02:10 10° WNW 20:02:43 13° NW 20:02:43 13° NW visible
28 Jan -2.3 19:10:28 10° WNW 19:13:21 27° N 19:13:26 27° N visible
29 Jan -2.6 18:18:45 10° W 18:21:47 33° NNW 18:24:08 15° NE visible
29 Jan -0.8 19:56:11 10° NW 19:56:51 14° NW 19:56:51 14° NW visible
30 Jan -2.2 19:04:34 10° WNW 19:07:19 24° N 19:07:31 23° N visible
31 Jan -2.2 18:12:51 10° WNW 18:15:41 25° N 18:18:11 12° NE visible
31 Jan -1.1 19:49:58 10° NW 19:50:54 16° NW 19:50:54 16° NW visible
01 Feb -2.3 18:58:27 10° NW 19:01:15 25° N 19:01:34 24° NNE visible
